Regional Weather Roundup
Issued by NWS

Home | Current Version | Previous Version | Graphics & Text | Print | Product List | Glossary On
Versions: 1 2 3 4 5 6 7 8 9 10 11 12 13 14 15 16 17 18 19 20 21 22 23 24 25 26 27 28 29 30 31 32 33 34 35 36 37 38 39 40 41 42 43 44 45 46 47 48 49 50
000
ASUS45 KTFX 070410
RWRMT
MONTANA REGIONAL WEATHER ROUNDUP
NATIONAL WEATHER SERVICE GREAT FALLS MT
900 PM MST SAT FEB 06 2016

NOTE: "FAIR" INDICATES FEW OR NO CLOUDS BELOW 12000 FEET WITH NO
SIGNIFICANT WEATHER AND/OR OBSTRUCTIONS TO VISIBILITY.

MTZ001>007-043-070500-
WEST OF THE DIVIDE

CITY           SKY/WX    TMP DP  RH WIND       PRES   REMARKS
KALISPELL      PTCLDY    29  20  69 S7        30.32R WCI  22
MISSOULA       CLOUDY    36  24  62 W10       30.37R WCI  28
BUTTE          CLOUDY    25  10  53 NE6       30.23R WCI  18
MULLAN PASS    CLOUDY    21  18  88 W8        30.27R WCI  11
ANACONDA         N/A     34  14  44 N8G16     30.25R WCI  27
DEER LODGE       N/A     28  19  69 NW9       30.27R WCI  20
HAMILTON         N/A     37  18  44 CALM      30.34R
LIBBY            N/A     34  19  55 CALM      30.35R
$$

MTZ008-052>055-070500-
SOUTHWEST MONTANA

CITY           SKY/WX    TMP DP  RH WIND       PRES   REMARKS
BOZEMAN        CLOUDY    30  17  58 NE10      30.22R WCI  21
DILLON         CLOUDY    36  18  48 W26       30.22F WCI  24
ENNIS          PTCLDY    36  14  41 SE12      30.28S WCI  27
TWIN BRIDGES     N/A     37  14  39 E1        30.20S
$$

MTZ009-010-012-014-046-048-049-054-070500-
EAST SLOPES AND CENTRAL MONTANA

CITY           SKY/WX    TMP DP  RH WIND       PRES   REMARKS
CUT BANK       CLEAR     29  15  56 W23       30.15R WCI  15
GREAT FALLS    CLEAR     27  16  63 W13       30.18R WCI  16
MALMSTROM AFB  CLEAR     33  16  49 W14       30.19R WCI  23
HELENA         CLOUDY    36  21  54 NW14      30.25R WCI  27
CHOTEAU          N/A     32  18  55 W16G23    30.20R WCI  21
CONRAD           N/A     35  15  44 W17       30.17R WCI  25
$$

MTZ011-013-016-021-045-047-050-051-070500-
NORTH CENTRAL MONTANA

CITY           SKY/WX    TMP DP  RH WIND       PRES   REMARKS
HAVRE          CLOUDY    36  19  50 W22G31    30.08R WCI  25
LEWISTOWN      MOCLDY    32  20  61 W15       30.12R WCI  22
N BAR RANCH    MOCLDY    32  16  51 NW24      30.10R WCI  19
CHINOOK          N/A     37  18  44 W17       30.04S WCI  28
$$

MTZ017>020-022>027-061-062-070500-
NORTHEAST MONTANA

CITY           SKY/WX    TMP DP  RH WIND       PRES   REMARKS
GLASGOW        CLOUDY    33  30  88 W21G31    29.96F WCI  21
JORDAN           N/A     35  28  75 W13       30.02R WCI  26
SIDNEY         CLEAR     37  25  60 W28G37    29.85S WCI  25
WOLF POINT     PTCLDY    37  29  72 W22G33    29.92S WCI  26
PLENTYWOOD       N/A     34  23  64 W23G29    29.78S WCI  22
POPLAR           N/A     36  28  75 W17G23    29.89F WCI  25
$$

MTZ028>42-056>058-070500-
SOUTHCENTRAL AND SOUTHEAST MONTANA

CITY           SKY/WX    TMP DP  RH WIND       PRES   REMARKS
BAKER          CLOUDY    37  22  54 W21G31    29.96R WCI  26
BILLINGS       PTCLDY    39  13  34 NW39G48   30.09R WCI  26
LIVINGSTON     CLOUDY    33  17  51 NW12      30.18R WCI  24
MILES CITY     CLOUDY    36  27  69 W15G25    30.04R WCI  27
FORSYTH          N/A     36  21  55 W8        30.08R WCI  29
LAUREL           N/A     38  14  37 W20       30.09R WCI  28
ROUNDUP          N/A     37  13  37 W13       30.02R WCI  29
$$

REGIONAL REPORTS...DAKOTAS

CITY           SKY/WX    TMP DP  RH WIND       PRES   REMARKS
WILLISTON      CLEAR     37  23  56 W25G35    29.80S WCI  25
MINOT          LGT RAIN  40  26  57 W30G43    29.62R
DICKINSON      CLEAR     35  22  58 W28G37    29.81R WCI  22
BEACH          MOCLDY    34  25  69 W20G28    29.95R WCI  22
CROSBY           N/A     36  23  60 W25G32    29.73S WCI  23
TIOGA            N/A     32  27  80 W24G33    29.78S WCI  19
WATFORD CITY     N/A     36  27  69 W16G28    29.81S WCI  26
BISMARCK       CLOUDY    45  30  55 W17G26    29.74R
GRAND FORKS    PTCLDY    38  31  76 SW12      29.49F WCI  30
FARGO          CLEAR     38  33  82 SW17      29.58F WCI  28
BUFFALO SD       N/A     38  22  52 W26       29.89R WCI  26
RAPID CITY     MOCLDY    40  19  43 NW25G35   30.00R
$$

REGIONAL REPORTS...WYOMING/IDAHO/WASHINGTON

CITY           SKY/WX    TMP DP  RH WIND       PRES   REMARKS
GILLETTE       MOCLDY    33  18  53 NW16      30.09R WCI  23
SHERIDAN       CLOUDY    35  22  58 NW12      30.12R WCI  27
BUFFALO WY     CLOUDY    34  17  50 NW15G22   30.10R WCI  24
CODY           CLOUDY    39  18  41 W15G31    30.11R WCI  31
YELLOWSTONE LA   N/A     21  15  78 CALM      30.25F
IDAHO FALLS    CLOUDY    21  17  84 N7        30.39S WCI  12
SALMON         PTCLDY    28  21  74 W3        30.35R
BOISE          PTCLDY    34  30  85 NW6       30.45R WCI  29
SPOKANE        PTCLDY    33  30  88 SW10      30.39R WCI  25
$$

REGIONAL REPORTS...ALBERTA

CITY           SKY/WX    TMP DP  RH WIND       PRES   REMARKS
EDMONTON       CLEAR     30  19  64 NW8       30.00R WCI  23
CALGARY        CLEAR     32   5  32 W15G22    30.08R WCI  22
LETHBRIDGE     CLEAR     32  10  40 W22       30.13R WCI  19
MEDICINE HAT   PTCLDY    37  12  35 W23G29    30.04R WCI  26
CARDSTON         N/A     32  12  43 W15G22      N/A  WCI  22
$$

REGIONAL REPORTS...SASKATCHEWAN

CITY           SKY/WX    TMP DP  RH WIND       PRES   REMARKS
SWIFT CURRENT  CLEAR     34  19  55 NW35G44   29.80F WCI  19
REGINA         MOCLDY    36  23  60 W29G40    29.68R WCI  23
SASKATOON      CLOUDY    34  28  80 NW33G41   29.64F WCI  19
CYPRESS HILLS    N/A     28  10  47 NW15G25     N/A  WCI  17
VAL MARIE        N/A     30  27  86 W16G22      N/A  WCI  19
ROCKGLEN         N/A     30  25  80 W15         N/A  WCI  19
ASSINIBOIA       N/A     32  23  69 NW24G31     N/A  WCI  19
$$



USA.gov is the U.S. government's official web portal to all federal, state and local government web resources and services.